Location: Waco, TX
(31.5480°N, 97.1670°W)
Time: 12:49:44
(UTC-05:00)

ISS - Pass Details

Date: 25 May 2018
Orbit: 402 x 407 km, 51.6° (Epoch: 25 May)

Event Time Altitude Azimuth Distance (km) Brightness Sun altitude
Rises 04:28:03 0° 308° (NW) 2,311 - -21.7°
Reaches altitude 10° 04:30:11 10° 302° (WNW) 1,450 - -21.3°
Maximum altitude 04:33:18 44° 229° (SW) 562 - -20.9°
Drops below altitude 10° 04:36:24 10° 155° (SSE) 1,443 - -20.4°
Sets 04:38:31 0° 149° (SSE) 2,299 - -20.0°
